Regional Weather Roundup
Issued by NWS

Home | Current Version | Previous Version | Text Only | Print | Product List | Glossary On
Versions: 1 2 3 4 5 6 7 8 9 10 11 12 13 14 15 16 17 18 19 20 21 22 23 24 25 26 27 28 29 30 31 32 33 34 35 36 37 38 39 40 41 42 43 44 45 46 47 48 49 50
000
ASUS44 KLIX 301210
RWRLA
LOUISIANA WEATHER ROUNDUP
NATIONAL WEATHER SERVICE NEW ORLEANS LA
700 AM CDT WED JUL 30 2014

NOTE: "FAIR" INDICATES FEW OR NO CLOUDS BELOW 12,000 FEET WITH NO
      SIGNIFICANT WEATHER AND/OR OBSTRUCTIONS TO VISIBILITY.
      SKY/WX - SKY CONDITION AND SIGNIFICANT WEATHER.
      TMP - AIR TEMPERATURE.    DP   - DEWPOINT TEMPERATURE.
      RH  - RELATIVE HUMIDITY.  PRES - PRESSURE.
      HX  - HEAT INDEX.         WCI  - WIND CHILL INDEX.

*  THESE STATIONS ARE NOT NWS OR FAA STATIONS AND ARE NOT UNDER
   NWS QUALITY CONTROL.

LAZ040-048-061>063-065-066-069-301300-
SOUTHEAST LOUISIANA

CITY           SKY/WX    TMP DP  RH WIND       PRES   REMARKS
N.O. AUDUBON     N/A     76  62  60 MISG        N/A
6HR MIN TEMP:  75; 6HR MAX TEMP:  82;

N.O. INTL ARPT PTCLDY    75  62  64 E5        30.06R
6HR MIN TEMP:  74; 6HR MAX TEMP:  81;

N.O. LAKEFRONT CLEAR     76  62  62 E13       30.07R
6HR MIN TEMP:  76; 6HR MAX TEMP:  81;

N.O. DOWNTOWN* FAIR      73  57  56 NE8       30.07R
6HR MIN TEMP:  73; 6HR MAX TEMP:  82;

SLIDELL        CLEAR     66  63  90 N5        30.06R
6HR MIN TEMP:  66; 6HR MAX TEMP:  73;

BATON ROUGE    PTCLDY    68  64  87 CALM      30.08R
6HR MIN TEMP:  66; 6HR MAX TEMP:  73;

BOOTHVILLE     CLEAR     79  69  71 NE8       30.05R
6HR MIN TEMP:  75; 6HR MAX TEMP:  81;

BELLE CHASSE   PTCLDY    73  63  70 NE5       30.05S
6HR MIN TEMP:  71; 6HR MAX TEMP:  78;

BOGALUSA*      FAIR      64  61  88 CALM      30.09S
6HR MIN TEMP:  64; 6HR MAX TEMP:  72;

GALLIANO*      NOT AVBL
NEW ROADS*     PTSUNNY   68  63  85 CALM      30.09R
6HR MIN TEMP:  67; 6HR MAX TEMP:  73;

GONZALES*      FAIR      69  66  88 CALM      30.07R
6HR MIN TEMP:  69; 6HR MAX TEMP:  73;

HAMMOND*       CLEAR     66  61  82 CALM      30.09S
HOUMA*         CLEAR     72  66  83 CALM      30.06R
PORT FOURCHON* SUNNY     79  72  78 NE8       30.06S

$$

LAZ041-044-053-054-301300-
SOUTHWEST LOUISIANA

CITY           SKY/WX    TMP DP  RH WIND       PRES   REMARKS
LAKE CHARLES   CLEAR     72  68  87 NE5       30.07R
6HR MIN TEMP:  71; 6HR MAX TEMP:  73;

LAFAYETTE      CLEAR     71  67  87 NE3       30.08R
6HR MIN TEMP:  70; 6HR MAX TEMP:  75;

PATTERSON      CLEAR     72  68  88 NE3       30.10R
6HR MIN TEMP:  70; 6HR MAX TEMP:  73;

SALT POINT       N/A     74  70  87 CALM      30.06R
6HR MIN TEMP:  74; 6HR MAX TEMP:  77;

NEW IBERIA     CLEAR     73  66  78 NE6       30.08R
6HR MIN TEMP:  72; 6HR MAX TEMP:  76;

CHENAULT AIRPK CLEAR     72  66  83 CALM      30.08R

$$

LAZ027-028-301300-
CENTRAL LOUISIANA

CITY           SKY/WX    TMP DP  RH WIND       PRES   REMARKS
FORT POLK      CLEAR     70  64  81 E5        30.09R
6HR MIN TEMP:  70; 6HR MAX TEMP:  75;

ALEXANDRIA INT CLEAR     66  64  93 CALM      30.08R
6HR MIN TEMP:  66; 6HR MAX TEMP:  75;

ALEXANDRIA     CLEAR     65  62  90 CALM      30.10R
6HR MIN TEMP:  64; 6HR MAX TEMP:  73;


$$

LAZ001-002-301300-
NORTHWEST LOUISIANA

CITY           SKY/WX    TMP DP  RH WIND       PRES   REMARKS
SHREVEPORT     PTCLDY    71  63  75 SE3       30.09R
6HR MIN TEMP:  69; 6HR MAX TEMP:  75;

BARKSDALE AFB  CLEAR     66  62  86 E5        30.10R
6HR MIN TEMP:  66; 6HR MAX TEMP:  73;

DTN SHREVEPORT CLEAR     70  61  73 SE3       30.10R
6HR MIN TEMP:  70; 6HR MAX TEMP:  75;


$$

LAZ014-016-301300-
NORTHEAST LOUISIANA

CITY           SKY/WX    TMP DP  RH WIND       PRES   REMARKS
MONROE         CLEAR     62  61  96 CALM      30.11S
6HR MIN TEMP:  62; 6HR MAX TEMP:  70;

TALLULAH       CLEAR     61  58  90 CALM      30.11R
6HR MIN TEMP:  59; 6HR MAX TEMP:  69;


$$



USA.gov is the U.S. government's official web portal to all federal, state and local government web resources and services.